Flag for Micronesia Weather past 2 weeks in Tofol, Kosrae, Micronesia

Now
75 °F

Overcast.


Feels Like: 73 °F
Forecast: 82 / 86 °F
Wind: 3 mph from Southeast

Location: Pohnpei


UV Index: 7 (High)

Visibility: 15 mi


Pressure: 29.77 "Hg

Humidity: 95%

Dew point: 73 °F

Location of TofolLocation

Historic Weather in Tofol

°F

Tofol temperature yesterday

Maximum temperature yesterday: 85 °F (at 2:54 PM)
Minimum temperature yesterday: 77 °F (at 9:50 PM)
Average temperature yesterday: 80 °F

Past Weeks' High & Low Weather Summary

 TemperatureHumidityPressure
High91 °F (Apr 16, 1:50 PM)98% (Apr 13, 3:55 AM)29.98 "Hg (Apr 13, 3:55 AM)
Low74 °F (Apr 15, 3:54 AM)60% (Apr 19, 4:54 PM)29.72 "Hg (Apr 23, 3:51 PM)
Average81 °F85%29.83 "Hg
* Reported Apr 9 3:54 AM — Apr 24 3:54 AM, Tofol, Weather by CustomWeather, © 2014

Note: Actual official high and low records may vary slightly from our data, if they occured in-between our weather recording intervals... More about our weather records

Advertising

Historic Weather Conditions — Data for Previous 24 hours

 ConditionsComfort  
Time TempWeatherWind HumidityBarometerVisibility
3:54 AM
Apr 24
75 °FOvercast.3 mph95%29.77 "Hg15 mi
2:54 AM76 °FMostly cloudy.3 mph96%29.76 "Hg15 mi
1:50 AM76 °FMostly cloudy.3 mph96%29.77 "Hg15 mi
12:52 AM77 °FMostly cloudy.3 mph95%29.79 "Hg15 mi
11:55 PM
Apr 23
77 °FMostly cloudy.3 mph96%29.81 "Hg15 mi
10:50 PM77 °FPassing clouds.3 mph96%29.84 "Hg15 mi
9:50 PM77 °FMostly cloudy.3 mph97%29.84 "Hg15 mi
8:50 PM77 °FMostly cloudy.3 mph97%29.83 "Hg15 mi
7:55 PM78 °FMostly cloudy.3 mph97%29.83 "Hg15 mi
6:50 PM79 °FSprinkles. Mostly cloudy.6 mph93%29.81 "Hg15 mi
5:55 PM82 °FMostly cloudy.3 mph88%29.78 "Hg15 mi
4:55 PM84 °FMostly cloudy.3 mph84%29.74 "Hg15 mi
3:51 PM85 °FMostly cloudy.7 mph84%29.72 "Hg15 mi
2:54 PM85 °FMostly cloudy.6 mph84%29.73 "Hg15 mi
1:51 PM85 °FMostly cloudy.3 mph81%29.75 "Hg15 mi
12:52 PM84 °FMostly cloudy.3 mph77%29.78 "Hg15 mi
11:52 AM84 °FMostly cloudy.5 mph84%29.80 "Hg15 mi
10:55 AM83 °FMostly cloudy.3 mph86%29.83 "Hg15 mi
9:50 AM80 °FMostly cloudy.2 mph94%29.83 "Hg15 mi
8:52 AM78 °FSprinkles. Mostly cloudy.2 mph96%29.85 "Hg15 mi
7:53 AM79 °FSprinkles. Mostly cloudy.5 mph91%29.85 "Hg12 mi
6:53 AM78 °FMostly cloudy.3 mph95%29.82 "Hg15 mi
Weather by CustomWeather, © 2014

See weather overview